Theta_e
282 283 283 284 285 285 286 286 286 287 286 287 287 287 286 284 284 285 285 285 286 286 287 289 290 291 291 292 294 297 303 310 318 322 324 324 326 325
281 282 283 283 282 282 283 283 284 285 285 284 283 281 281 282 283 283 283 284 283 285 286 287 288 288 290 292 292 294 297 301 308 317 321 321 324 325
280 280 281 279 280 281 281 280 281 282 282 281 280 280 281 281 281 282 282 282 283 284 285 286 286 287 288 288 290 291 293 298 301 309 318 320 322 324
278 278 278 279 280 280 278 279 280 279 280 280 280 280 280 280 281 280 281 281 282 282 283 284 285 285 286 287 289 291 293 297 299 304 312 316 321 321
278 277 277 278 279 278 278 278 279 279 279 279 279 280 279 279 279 279 280 280 280 280 281 281 282 284 286 288 289 290 291 295 300 305 308 314 317 321
277 276 276 278 278 277 278 278 278 277 277 278 278 278 278 278 278 279 278 278 278 278 280 281 282 283 283 283 285 286 287 291 298 302 306 311 315 317
276 276 275 277 277 277 278 277 277 277 277 276 277 277 277 277 277 277 277 277 278 278 280 280 279 279 281 282 283 284 285 286 292 295 298 307 311 316
275 274 275 276 275 276 277 276 276 275 275 276 276 276 276 275 275 276 277 277 278 278 278 277 278 279 280 281 282 283 285 286 287 290 292 299 308 312
274 273 274 274 274 276 275 274 274 274 274 275 275 274 274 274 275 275 276 276 276 276 276 277 277 278 279 279 281 283 285 286 286 289 292 297 303 307
273 272 273 273 274 275 274 273 273 273 274 273 272 273 273 274 274 274 274 274 274 275 275 276 276 277 278 278 279 281 283 287 290 289 291 293 300 306
272 271 272 272 274 274 272 272 272 272 272 271 271 272 272 272 273 273 272 273 273 273 273 274 277 276 276 277 281 283 286 286 285 288 292 293 296 303
271 271 271 272 273 273 271 270 271 271 269 269 269 270 270 270 270 271 271 271 272 273 276 274 274 275 277 278 280 281 279 281 283 286 291 293 297 298
270 270 270 272 272 272 270 270 270 268 267 267 267 267 268 268 268 268 269 270 271 272 272 273 273 274 275 276 277 278 278 280 282 282 285 289 296 300
269 269 269 270 270 269 268 269 268 265 266 266 265 265 266 266 266 267 268 269 269 270 271 271 272 273 274 276 277 278 279 280 281 282 284 288 293 297
269 268 268 268 267 267 267 267 265 264 264 264 264 264 264 264 265 266 267 268 268 269 271 271 272 274 275 277 278 278 279 280 281 282 283 285 291 298
269 268 267 267 266 265 265 265 264 263 263 263 263 262 263 263 264 265 266 266 268 269 270 271 272 273 275 276 277 278 279 281 282 283 283 285 290 294
268 268 268 267 265 265 265 264 263 263 262 262 261 261 261 262 263 263 264 265 267 268 269 270 271 272 273 275 277 278 279 281 282 283 284 285 287 292
266 265 264 264 263 263 263 263 263 262 261 260 261 260 260 261 261 262 263 264 266 267 268 269 270 271 274 276 277 280 282 283 285 285 285 286 287 292
265 264 263 263 263 262 262 262 261 261 260 260 260 259 260 260 260 261 262 263 265 265 267 268 270 272 274 275 276 276 279 280 284 286 286 286 289 293
264 263 263 263 262 262 261 261 260 260 259 259 259 258 259 259 260 260 261 262 263 264 266 268 269 271 273 273 274 275 277 280 282 287 288 288 290 293
264 263 263 262 262 261 261 261 260 259 258 258 258 258 258 258 259 259 260 261 263 264 266 267 268 269 271 273 276 280 281 282 284 286 288 291 291 290
263 262 262 262 261 261 260 260 259 258 258 257 257 257 258 258 258 259 260 261 262 263 264 266 268 269 271 274 277 280 281 284 288 287 288 292 292 291
263 262 262 261 261 260 260 259 258 258 257 256 256 257 257 257 257 258 260 261 261 263 264 266 267 269 271 274 278 280 282 287 290 288 288 291 293 296
Wind_Speed
15 14 13 13 11 13 13 13 13 7 11 13 22 20 37 44 40 32 30 35 35 34 32 31 32 31 32 32 29 27 29 30 32 36 36 45 52 55
14 15 15 12 14 12 13 13 13 14 7 22 22 32 30 38 41 34 37 33 32 32 31 32 31 33 31 30 31 32 29 31 32 35 37 50 51 58
15 15 10 13 14 14 12 16 15 14 15 24 27 26 28 31 37 46 34 34 32 30 32 33 34 36 35 33 32 32 33 35 34 32 38 40 48 53
12 13 14 12 14 10 19 13 14 18 20 24 26 29 28 28 29 33 45 33 31 31 31 34 36 36 35 36 33 31 29 32 35 34 35 41 47 51
11 12 11 12 11 17 16 17 17 20 20 24 26 27 28 29 31 30 33 42 33 30 35 34 32 30 28 28 27 28 30 28 31 32 35 41 45 53
10 12 12 14 16 17 16 18 21 21 22 21 24 25 28 28 26 30 38 35 42 37 35 27 26 28 37 35 35 36 34 34 31 24 26 37 43 49
13 13 12 12 15 15 19 21 22 21 20 22 22 23 26 29 27 31 30 39 42 39 27 22 40 35 34 35 35 32 30 31 36 38 30 29 36 44
14 14 12 13 16 17 19 20 19 21 21 21 22 23 27 30 28 30 31 29 16 20 36 45 33 35 35 35 33 34 35 36 34 35 35 31 32 36
12 13 13 14 16 20 20 21 19 18 18 22 25 27 31 31 32 33 29 31 31 40 37 40 34 34 34 35 33 35 35 38 39 34 34 33 31 31
11 12 12 14 18 22 20 18 18 18 19 25 27 28 30 32 30 30 33 34 34 33 28 22 31 34 31 37 41 39 37 30 27 29 32 35 33 32
12 14 13 14 19 20 20 18 19 21 24 26 24 26 27 27 26 29 27 27 22 30 36 23 19 40 34 38 23 21 19 30 30 27 25 31 36 31
17 15 17 16 17 20 20 17 21 24 26 27 32 32 30 28 26 22 25 25 27 16 10 18 32 25 8 17 14 29 37 35 31 29 25 26 27 31
21 21 21 20 18 18 18 18 22 26 22 23 26 27 29 29 28 29 27 27 29 29 38 32 31 33 21 27 28 31 36 34 30 36 34 31 21 27
21 19 18 18 18 16 16 19 23 26 23 23 25 27 29 32 34 36 35 33 34 38 45 36 29 33 30 24 17 30 34 34 32 35 34 31 28 25
19 16 15 16 18 20 15 18 27 27 23 22 25 27 30 33 33 34 36 33 37 40 36 31 31 35 33 31 29 33 35 32 32 37 36 34 25 22
20 20 19 22 24 24 24 25 28 28 26 20 24 29 29 32 31 30 32 36 35 42 46 31 30 31 33 33 35 33 32 20 24 34 32 31 25 26
20 23 27 28 30 32 32 27 27 28 27 26 26 29 30 30 33 31 30 31 28 32 40 44 43 34 35 37 32 34 34 33 32 33 28 28 29 28
19 23 24 23 24 25 25 25 26 27 29 26 27 28 28 29 32 35 30 28 28 34 34 35 39 39 37 31 28 31 28 31 33 32 29 25 26 25
21 22 21 23 23 23 24 22 25 26 30 24 26 28 28 30 31 32 32 30 32 33 37 36 34 27 15 17 39 32 29 33 33 27 28 28 25 24
20 20 21 22 22 23 24 23 26 29 31 27 28 28 28 29 31 32 31 31 33 36 37 37 31 28 18 21 21 52 41 37 31 23 23 25 28 24
21 23 22 22 21 23 23 27 28 29 31 27 27 28 29 30 33 31 33 35 36 32 30 34 40 46 42 39 21 22 36 35 38 34 26 19 11 10
19 21 21 22 22 23 21 25 30 30 31 28 28 28 31 31 31 33 33 35 36 35 37 42 44 42 36 26 17 20 33 36 30 38 35 24 9 4
19 20 22 22 22 22 19 28 31 31 29 28 28 29 31 34 33 32 34 35 35 38 37 40 43 39 35 32 28 21 29 26 14 18 28 18 24 17
Wind_Direction
38 36 33 26 14 357 347 346 335 321 320 326 337 332 318 319 318 322 318 318 315 313 313 311 306 303 303 301 298 295 274 262 255 247 235 237 231 209
33 32 34 23 352 2 1 355 335 321 304 325 323 319 319 322 322 319 319 315 314 313 310 310 307 305 303 299 294 292 286 272 259 246 242 237 236 212
35 32 20 5 13 13 7 347 335 331 314 313 316 318 316 315 317 323 318 315 313 311 310 309 307 303 300 299 294 291 282 277 272 256 240 243 231 222
26 24 17 11 17 14 354 349 341 327 323 311 318 318 316 316 314 312 317 315 312 311 310 306 303 301 297 296 301 299 296 278 277 261 245 239 238 224
30 19 6 12 15 359 355 343 338 331 323 314 313 318 315 319 320 318 315 314 313 313 311 307 305 308 307 300 296 290 291 291 284 274 250 237 237 233
24 17 8 14 6 357 348 343 338 333 328 323 319 318 318 322 323 322 320 317 314 315 309 306 307 307 303 298 293 290 286 279 273 274 269 251 240 235
21 12 9 10 4 357 350 345 340 333 332 326 320 319 319 324 327 321 314 312 312 310 307 316 315 307 301 300 298 295 291 286 272 273 274 250 250 238
14 6 10 2 358 355 347 342 340 337 331 328 320 319 317 317 318 314 313 314 314 319 322 307 309 302 298 296 296 295 293 289 286 275 272 269 249 247
11 5 5 359 357 350 345 343 341 340 334 327 321 316 312 314 314 314 312 307 300 301 308 299 307 297 299 299 300 296 293 293 291 282 270 266 263 251
11 7 358 353 356 351 345 341 342 341 335 327 319 314 312 313 313 312 309 305 299 300 305 293 305 297 305 300 295 290 288 303 307 291 269 263 260 255
8 8 355 353 353 351 349 346 342 338 331 329 326 321 318 317 318 321 316 317 309 309 306 289 306 314 307 297 311 312 297 303 309 310 295 280 259 254
7 1 2 357 349 353 355 352 342 337 332 334 335 338 334 328 326 324 317 310 309 314 307 323 312 322 312 298 301 299 310 307 306 304 300 293 271 256
1 358 357 355 350 347 353 355 344 333 333 332 330 328 330 329 327 324 319 308 301 290 291 306 303 299 282 293 296 300 297 298 302 299 295 291 282 252
360 357 351 347 348 345 351 348 345 354 341 332 332 330 329 326 325 322 317 311 300 290 296 299 290 290 288 288 291 297 294 293 293 291 288 284 283 267
358 352 349 353 358 3 353 346 353 356 344 332 330 326 323 319 318 320 321 318 311 306 305 302 294 291 286 286 289 292 297 294 286 277 275 275 277 270
352 356 2 4 5 3 0 357 355 353 345 327 322 320 322 324 323 324 320 321 317 313 317 313 306 300 292 285 285 288 286 278 279 282 284 286 284 269
348 0 4 2 359 359 356 351 346 346 344 335 328 327 325 325 323 325 321 318 311 311 311 318 317 309 294 285 282 280 279 275 270 267 265 271 270 265
3 8 1 356 355 349 344 339 339 338 338 332 328 327 323 323 321 322 321 318 313 311 309 311 312 313 312 303 281 283 281 286 275 257 248 252 263 256
11 2 354 353 349 342 339 335 330 330 334 330 328 325 323 322 323 321 320 319 316 313 310 311 310 309 307 303 304 297 287 286 288 247 237 236 248 249
3 355 351 348 344 335 336 331 331 331 334 331 328 326 325 323 322 321 319 316 315 314 312 313 311 309 304 296 297 294 293 268 265 247 235 236 246 245
353 349 347 344 340 335 336 333 332 329 330 326 325 325 324 324 320 318 316 315 315 313 310 309 309 308 302 300 293 288 297 287 256 238 231 227 216 202
346 342 341 340 339 337 332 329 331 330 331 327 326 325 324 323 317 316 316 316 315 312 307 306 312 316 313 307 299 302 300 297 270 236 225 221 186 214
341 339 338 337 339 337 324 328 331 329 328 325 323 323 323 320 318 315 314 315 313 313 314 314 317 319 314 310 302 307 304 292 228 193 207 215 222 226